This is the latest recevied weather packets stored in our database for station/object KK4EQF. If no packets are shown the sender has not sent any weather packets the latest 1 day(s).
| Time | Temp. | Humidity | Pressure | Rain* | Wind** | Luminosity | Snow |
|---|---|---|---|---|---|---|---|
| 1778002948 | 26.11° C | 11% | 1015.9 hPa | 0 mm | 0.89 m/s, 235° | - | - |
| 1778002888 | 26.11° C | 12% | 1015.9 hPa | 0 mm | 0.89 m/s, 238° | - | - |
| 1778002823 | 26.11° C | 12% | 1015.9 hPa | 0 mm | 0.89 m/s, 241° | - | - |
| 1778002762 | 26.11° C | 7% | 1015.9 hPa | 0 mm | 0.89 m/s, 211° | - | - |
| 1778002741 | 26.11° C | 8% | 1015.9 hPa | 0 mm | 0.89 m/s, 220° | - | - |
| 1778002721 | 26.11° C | 4% | 1015.9 hPa | 0 mm | 0.89 m/s, 232° | - | - |
| 1778002702 | 26.11° C | 5% | 1015.9 hPa | 0 mm | 0.89 m/s, 221° | - | - |
| 1778002518 | 26.11° C | 8% | 1015.9 hPa | 0 mm | 1.34 m/s, 250° | - | - |
| 1778002456 | 26.11° C | 12% | 1016 hPa | 0 mm | 1.34 m/s, 163° | - | - |
| 1778002396 | 26.67° C | 13% | 1016 hPa | 0 mm | 1.34 m/s, 159° | - | - |
| 1778002337 | 26.67° C | 15% | 1015.9 hPa | 0 mm | 1.34 m/s, 249° | - | - |
| 1778002276 | 26.67° C | 14% | 1015.9 hPa | 0 mm | 1.34 m/s, 198° | - | - |
| 1778002210 | 26.67° C | 11% | 1015.9 hPa | 0 mm | 1.34 m/s, 226° | - | - |
| 1778002150 | 26.67° C | 12% | 1015.9 hPa | 0 mm | 1.34 m/s, 200° | - | - |
| 1778002092 | 26.67° C | 15% | 1015.9 hPa | 0 mm | 1.34 m/s, 234° | - | - |
| 1778002033 | 26.67° C | 16% | 1016 hPa | 0 mm | 1.34 m/s, 225° | - | - |
| 1778001973 | 26.67° C | 16% | 1016 hPa | 0 mm | 1.34 m/s, 201° | - | - |
| 1778001905 | 26.67° C | 16% | 1016 hPa | 0 mm | 1.34 m/s, 182° | - | - |
| 1778001847 | 26.67° C | 14% | 1016 hPa | 0 mm | 1.34 m/s, 155° | - | - |
| 1778001830 | 26.67° C | 11% | 1016 hPa | 0 mm | 1.34 m/s, 227° | - | - |
| 1778001813 | 26.67° C | 8% | 1016 hPa | 0 mm | 1.34 m/s, 218° | - | - |
| 1778001793 | 26.67° C | 8% | 1015.9 hPa | 0 mm | 1.34 m/s, 218° | - | - |
| 1778001598 | 26.67° C | 11% | 1015.9 hPa | 0 mm | 1.34 m/s, 227° | - | - |
| 1778001536 | 26.67° C | 6% | 1015.9 hPa | 0 mm | 1.34 m/s, 188° | - | - |
| 1778001477 | 26.67° C | 3% | 1015.9 hPa | 0 mm | 1.34 m/s, 227° | - | - |
* Rain latest hour (hover to see other rain measurements)
** Current wind speed in m/s (hover to see current wind gust speed)